Regional Weather Roundup
Issued by NWS

Home | Current Version | Previous Version | Text Only | Print | Product List | Glossary Off
Versions: 1 2 3 4 5 6 7 8 9 10 11 12 13 14 15 16 17 18 19 20 21 22 23 24 25 26 27 28 29 30 31 32 33 34 35 36 37 38 39 40 41 42 43 44 45 46 47 48 49 50

000
ASUS45 KBOU 121410
RWRCO

WEATHER ROUNDUP FOR COLORADO
NATIONAL WEATHER SERVICE DENVER/BOULDER CO
800 AM MDT SAT JUL 12 2014

NOTE: "FAIR" INDICATES FEW OR NO CLOUDS BELOW 12000 FEET WITH NO
SIGNIFICANT WEATHER AND/OR OBSTRUCTIONS TO VISIBILITY.

COZ001>005-013-030-031-121500-
...NORTHWEST COLORADO...

CITY           SKY/WX    TMP DP  RH WIND       PRES   REMARKS
CRAIG          MOSUNNY   60  59  96 CALM      30.32R
HAYDEN         MOSUNNY   63  54  72 E13       30.33R
MEEKER         SUNNY     63  51  65 SE6       30.31S
MOUNT WERNER   NOT AVBL
STEAMBOAT SPGS MOSUNNY   60  55  83 CALM      30.35R
WALDEN         MOSUNNY   54  50  87 E5        30.42R
$$

COZ006>008-011-121500-
...WEST CENTRAL VALLEYS...

CITY           SKY/WX    TMP DP  RH WIND       PRES   REMARKS
GRAND JUNCTION SUNNY     75  53  46 SE7       30.19R
MONTROSE       MOSUNNY   68  53  58 S7        30.28S
EAGLE          MOSUNNY   61  57  88 CALM      30.38S
RIFLE          SUNNY     64  56  75 CALM      30.27S
DELTA          MOSUNNY   73  52  48 NE7       30.25R
NUCLA          MOSUNNY   70  48  46 E10       30.32R
$$

COZ017>023-064>068-121500-
...SOUTHWEST COLORADO...

CITY           SKY/WX    TMP DP  RH WIND       PRES   REMARKS
DURANGO        PTSUNNY   60  57  89 N3        30.34R
CORTEZ         SUNNY     67  54  63 NE3       30.29R
PAGOSA SPRINGS MOSUNNY   62  51  67 CALM      30.41S
TELLURIDE      MOSUNNY   57  48  72 CALM      30.51R
WOLF CREEK PAS NOT AVBL
$$

COZ009-010-012-014-032>034-037-058>063-121500-
...CENTRAL COLORADO...

CITY           SKY/WX    TMP DP  RH WIND       PRES   REMARKS
ASPEN          MOSUNNY   58  50  75 CALM      30.42R
BUENA VISTA    PTSUNNY   61  50  67 MISG      30.43S
COPPER MTN     MOSUNNY   54  43  66 SW5       30.71R
BERTHOUD PASS  FAIR      43  30  61 NW21      30.73R
COTTONWOOD PAS PTSUNNY   61  45  55 CALM      30.55S
GUNNISON       MOSUNNY   57  48  72 CALM      30.46S
KREMMLING      PTSUNNY   55  50  82 CALM      30.42S
LEADVILLE      MOSUNNY   52  45  77 CALM      30.55R
MONARCH PASS   CLOUDY    50  41  71 W12       30.80S
SALIDA         PTSUNNY  N/A N/A N/A CALM      30.47S
SUNLIGHT       SUNNY     55  46  71 CALM      30.63R
WILKERSON PASS CLOUDY    52  41  66 W7        30.67S
$$

COZ069>075-121500-
...SAN LUIS VALLEY/SANGRE DE CRISTO MOUNTAINS...

CITY           SKY/WX    TMP DP  RH WIND       PRES   REMARKS
ALAMOSA        MOSUNNY   57  48  72 CALM      30.41R
LA VETA PASS   SUNNY     52  43  71 SW6       30.56R
SAGUACHE       NOT AVBL
$$

COZ035-036-038>040-121500-
...NORTHERN COLORADO FRONT RANGE...

CITY           SKY/WX    TMP DP  RH WIND       PRES   REMARKS
DENVER INTL AP PTSUNNY   71  60  68 N7        30.23R
DMNS CITY PARK   N/A     71  59  64 N1        30.21R
AURORA         NOT AVBL
FRONT RANGE AP NOT AVBL
ERIE MUNI ARPT MOSUNNY   70  62  78 N8        30.22R
BOULDER MUN AP MOSUNNY   68  63  83 N3        30.23R
CENTENNIAL     MOSUNNY   67  56  67 CALM      30.24R
BROOMFIELD     PTSUNNY   68  59  73 CALM      30.25R
FORT COLLINS   PTSUNNY   64  61  88 E10       30.24R
LONGMONT       PTSUNNY   69  64  83 NE5       30.25R
$$

COZ041-046-047-076>085-087-088-121500-
...PIKES PEAK/PALMER DIVIDE AND SOUTHERN FOOTHILLS...

CITY           SKY/WX    TMP DP  RH WIND       PRES   REMARKS
COLO. SPRINGS  PTSUNNY   67  58  72 N3        30.29R
A. F. ACADEMY  NOT AVBL
ELLICOTT       PTSUNNY   64  60  87 NW7       30.27R
FALCON         PTSUNNY   67  55  64 CALM      30.33R
FORT CARSON    NOT AVBL
LIMON          PTSUNNY   66  60  81 NW5       30.22R
MONUMENT HILL  MOSUNNY   63  55  77 SW6       30.32R
TRINIDAD       SUNNY     72  52  49 W9        30.27R
$$

COZ042>045-048>051-090-091-121500-
...NORTHEAST COLORADO...

CITY           SKY/WX    TMP DP  RH WIND       PRES   REMARKS
GREELEY ARPT   NOT AVBL
AKRON          CLOUDY    63  62  97 N9        30.20R
BURLINGTON     CLOUDY    69  64  84 N9        30.14S
WRAY           CLOUDY    68  66  94 NW8       30.13S
STERLING       PTSUNNY   72  66  83 N5        30.16S
HOLYOKE        CLOUDY    68  63  83 N7        30.14S
FORT MORGAN    CLOUDY    67  62  83 N6        30.21R
$$

COZ086-089-092>099-121500-
...SOUTHEAST COLORADO...

CITY           SKY/WX    TMP DP  RH WIND       PRES   REMARKS
PUEBLO         MOSUNNY   72  62  71 W8        30.19R
LA JUNTA       SUNNY     73  61  65 CALM      30.16R
LAMAR          SUNNY     76  62  62 N8        30.11R
SPRINGFIELD      N/A     77  56  48 W6        30.16R
$$


USA.gov is the U.S. government's official web portal to all federal, state and local government web resources and services.